EUTELSAT HOTBIRD 13G

Last updated on Tue Sep 22 2026 00:03:16 GMT+0000 (Coordinated Universal Time)

1 54225U 22146A 26264.27786308 .00000084 00000+0 00000+0 0 9994 2 54225 0.0532 237.7052 0002186 294.5378 300.9712 1.00273091 8431
UTC large
Height (km)
Speed (km/s)
/
Latitude / Longitude
Inclination (degrees)
Orbital Period (minutes)
Azimuth
Elevation
Range (km)
Doppler Factor

Next 0 passes for location: London (51.5072 / 0.1276)

No passes found over London.
EUTELSAT HOTBIRD 13G